OBJECT V, 62396

Orbit data source: Space-Track

You're viewing an Uncataloged Satellite

Recently launched and/or uncataloged satellites may have evolving metadata. Metadata may include but not limited to: Owner, Maufacturer, Bus, Motor, and Mission.

OBJECT V, 62396 is a satellite in LEO that was launched on Sat, 21 Dec 2024 UTC via an FALCON 9 launch vehicle from the Air Force Western Test Range (AFWTR). Unknown objects in Earth's orbit typically refer to objects detected orbiting the Earth but have not yet been identified or cataloged. These objects could be anything from previously untracked satellites, spent rocket stages, debris from satellite collisions, or even natural meteoroids temporarily captured by Earth's gravity.

Loading next visibility...
Identifier
62396, 2024-247V
Orbit
LEO
Country
Flag of TBDTBD
Related business
None
Manufacturer
Unknown
Mission
Operational Commercial Communications
Bus & Motor
Unknown
Mass
Unknown
Launch date (UTC)
2024-12-21 (1 year ago)
Launch vehicle
FALCON 9
Launch site
Air Force Western Test Range (AFWTR)
Object type
Unknown
Shape & HBR
Box, 0.0 m
Radar Cross Section
0.004 m², Small (<0.1 m²)

Expand to show TLE details & history
Last TLE update: 1 day ago

TLE from 1 day ago
0 OBJECT V
1 62396U 24247V   26036.01378103  .00044308  00000-0  10259-2 0  9993
2 62396  44.9938 273.0556 0008948 182.4349 177.6497 15.41769836 63003
Epoch: 2026-02-05T00:19Z
TLE epoch observation values (Epoch: 2026-02-05T00:19:50.680Z)
Latitude
-0.00001°
Longitude
132.92232°
Altitude
446.98 km
Speed
7.642 km/s
True Right ascension
18h 12m 13s
True Declination
0° 00' 00"
Sunlit
Object was in daylight at epoch
Visualization orbit readout
Latitude
Unknown
Longitude
Unknown
Altitude
Unknown
Speed
Unknown
Apparent Right ascension
Unknown
Apparent Declination
Unknown
Sunlit
N/A
Visualization observer readout
Local Sidereal Time
06:38:34
Azimuth
Unknown
Elevation
Unknown
Doppler factor
Unknown
Orbital elements
Apogee altitude
448.609 km
Perigee altitude
436.403 km
Semi-major axis
6,820.643 km
Eccentricity
0.00089
Inclination
44.9938°
RAAN
273.0556°
Arg. of periapsis
182.4349°
True anomaly
177.6539°
Mean anomaly
177.6497°
Eccentric anomaly
177.6518°
Mean motion
3.85305 °/min
Orbital period
93.43 mins
BSTAR
0.0010259
Loading maneuver chart data...
Computing Atmospheric mass density...
Loading historical data...
Loading historical data...
Loading historical data...
Loading historical data...
Loading historical data...
Loading historical data...
Loading historical data...

Documentation

Showing up to 5 results
|